• en Belgique
  • Liste des pays
  • À 7 jours
  • Température de l'eau
  • Carte satellitaire
  • Carte météo
  • Widgets météo
  • user-avatar
    Se connecter

    Météo par heure à Rokford

    Ce jour, 20 Juin, Mercredi

    Heure Température Précipitation Vent Pression Humidité
    00:00 +17°C° 0 mm 3 m/s 735 mmHg 97%
    01:00 +17°C° 0 mm 3 m/s 735 mmHg 97%
    02:00 +17°C° 0 mm 3 m/s 735 mmHg 96%
    03:00 +17°C° 0 mm 3 m/s 735 mmHg 96%
    04:00 +17°C° 0 mm 3 m/s 735 mmHg 95%
    05:00 +17°C° 0 mm 3 m/s 735 mmHg 94%
    06:00 +18°C° 0 mm 3 m/s 735 mmHg 93%
    07:00 +18°C° 0 mm 3 m/s 735 mmHg 91%
    08:00 +19°C° 0 mm 3 m/s 735 mmHg 89%
    09:00 +20°C° 0 mm 3 m/s 735 mmHg 86%
    10:00 +21°C° 0 mm 3 m/s 735 mmHg 84%
    11:00 +22°C° 0 mm 3 m/s 735 mmHg 82%
    12:00 +24°C° 0 mm 3 m/s 735 mmHg 80%
    13:00 +25°C° 0,1 mm 4 m/s 735 mmHg 80%
    14:00 +25°C° 0,1 mm 4 m/s 735 mmHg 80%
    15:00 +25°C° 0,1 mm 4 m/s 734 mmHg 80%
    16:00 +25°C° 0 mm 4 m/s 734 mmHg 81%
    17:00 +23°C° 0 mm 4 m/s 734 mmHg 82%
    18:00 +24°C° 0 mm 3 m/s 734 mmHg 83%
    19:00 +22°C° 0 mm 4 m/s 734 mmHg 82%
    20:00 +21°C° 0 mm 4 m/s 734 mmHg 81%
    21:00 +19°C° 0 mm 4 m/s 734 mmHg 80%
    22:00 +19°C° 0 mm 4 m/s 734 mmHg 79%
    23:00 +18°C° 0 mm 4 m/s 734 mmHg 77%

    Demain, 21 Juin, Jeudi

    Heure Température Précipitation Vent Pression Humidité
    00:00 +18°C° 0 mm 4 m/s 734 mmHg 76%
    01:00 +17°C° 0 mm 4 m/s 734 mmHg 76%
    02:00 +17°C° 0 mm 4 m/s 734 mmHg 76%
    03:00 +17°C° 0 mm 4 m/s 733 mmHg 76%
    04:00 +16°C° 0,1 mm 5 m/s 733 mmHg 79%
    05:00 +16°C° 0,1 mm 5 m/s 733 mmHg 82%
    06:00 +17°C° 0,1 mm 5 m/s 733 mmHg 85%
    07:00 +19°C° 0,2 mm 5 m/s 733 mmHg 84%
    08:00 +20°C° 0,2 mm 6 m/s 734 mmHg 83%
    09:00 +20°C° 0,2 mm 6 m/s 734 mmHg 83%
    10:00 +21°C° 0,3 mm 6 m/s 734 mmHg 81%
    11:00 +22°C° 0,3 mm 5 m/s 734 mmHg 79%
    12:00 +22°C° 0,3 mm 5 m/s 734 mmHg 77%
    13:00 +22°C° 0,1 mm 5 m/s 734 mmHg 77%
    14:00 +22°C° 0,1 mm 5 m/s 734 mmHg 76%
    15:00 +22°C° 0,1 mm 5 m/s 733 mmHg 76%
    16:00 +22°C° 0 mm 5 m/s 733 mmHg 78%
    17:00 +21°C° 0 mm 5 m/s 733 mmHg 79%
    18:00 +21°C° 0 mm 5 m/s 733 mmHg 81%
    19:00 +21°C° 0 mm 5 m/s 733 mmHg 80%
    20:00 +20°C° 0 mm 5 m/s 733 mmHg 80%
    21:00 +20°C° 0 mm 5 m/s 734 mmHg 79%
    22:00 +20°C° 0,2 mm 5 m/s 734 mmHg 81%
    23:00 +19°C° 0,2 mm 5 m/s 733 mmHg 84%

    Après-demain, 22 Juin, Vendredi

    Heure Température Précipitation Vent Pression Humidité
    00:00 +19°C° 0,2 mm 5 m/s 733 mmHg 86%
    01:00 +19°C° 0,9 mm 4 m/s 733 mmHg 88%
    02:00 +18°C° 0,9 mm 4 m/s 733 mmHg 90%
    03:00 +18°C° 0,9 mm 4 m/s 733 mmHg 91%
    04:00 +18°C° 0,9 mm 4 m/s 733 mmHg 92%
    05:00 +18°C° 0,9 mm 4 m/s 733 mmHg 92%
    06:00 +18°C° 0,9 mm 4 m/s 733 mmHg 92%
    07:00 +18°C° 0,9 mm 4 m/s 733 mmHg 92%
    08:00 +18°C° 0,9 mm 4 m/s 734 mmHg 91%
    09:00 +19°C° 0,9 mm 4 m/s 734 mmHg 90%
    10:00 +19°C° 0,5 mm 4 m/s 734 mmHg 88%
    11:00 +19°C° 0,5 mm 4 m/s 734 mmHg 86%
    12:00 +20°C° 0,5 mm 3 m/s 734 mmHg 85%
    13:00 +21°C° 0 mm 4 m/s 733 mmHg 80%
    14:00 +22°C° 0 mm 4 m/s 733 mmHg 76%
    15:00 +23°C° 0 mm 4 m/s 733 mmHg 71%
    16:00 +22°C° 0 mm 4 m/s 733 mmHg 74%
    17:00 +22°C° 0 mm 3 m/s 732 mmHg 77%
    18:00 +22°C° 0 mm 3 m/s 732 mmHg 80%
    19:00 +20°C° 0 mm 3 m/s 732 mmHg 81%
    20:00 +18°C° 0 mm 3 m/s 732 mmHg 82%
    21:00 +16°C° 0 mm 3 m/s 732 mmHg 83%
    22:00 +14°C° 0 mm 3 m/s 731 mmHg 83%
    23:00 +15°C° 0 mm 2 m/s 731 mmHg 82%

    23 Juin, Samedi

    Heure Température Précipitation Vent Pression Humidité
    00:00 +14°C° 0 mm 2 m/s 731 mmHg 82%
    01:00 +14°C° 0 mm 2 m/s 730 mmHg 81%
    02:00 +14°C° 0 mm 2 m/s 730 mmHg 80%
    03:00 +14°C° 0 mm 2 m/s 730 mmHg 80%
    04:00 +14°C° 0 mm 2 m/s 730 mmHg 81%
    05:00 +14°C° 0 mm 2 m/s 730 mmHg 82%
    06:00 +15°C° 0 mm 2 m/s 731 mmHg 82%
    07:00 +16°C° 0 mm 2 m/s 731 mmHg 78%
    08:00 +18°C° 0 mm 2 m/s 731 mmHg 73%
    09:00 +20°C° 0 mm 2 m/s 732 mmHg 68%
    10:00 +21°C° 0 mm 2 m/s 732 mmHg 65%
    11:00 +24°C° 0 mm 2 m/s 732 mmHg 61%
    12:00 +25°C° 0 mm 2 m/s 732 mmHg 57%
    13:00 +25°C° 0 mm 2 m/s 732 mmHg 56%
    14:00 +26°C° 0 mm 1 m/s 732 mmHg 55%
    15:00 +26°C° 0 mm 1 m/s 731 mmHg 53%
    16:00 +26°C° 0 mm 1 m/s 731 mmHg 57%
    17:00 +26°C° 0 mm 1 m/s 731 mmHg 62%
    18:00 +26°C° 0 mm 1 m/s 732 mmHg 66%
    19:00 +23°C° 0 mm 1 m/s 732 mmHg 69%
    20:00 +19°C° 0 mm 0 m/s 732 mmHg 72%
    21:00 +17°C° 0 mm 0 m/s 732 mmHg 74%
    22:00 +17°C° 0 mm 0 m/s 732 mmHg 75%
    23:00 +18°C° 0 mm 1 m/s 732 mmHg 75%

    24 Juin, Dimanche

    Heure Température Précipitation Vent Pression Humidité
    00:00 +18°C° 0 mm 1 m/s 732 mmHg 76%
    01:00 +18°C° 0 mm 1 m/s 732 mmHg 77%
    02:00 +16°C° 0 mm 1 m/s 732 mmHg 79%
    03:00 +16°C° 0 mm 1 m/s 732 mmHg 80%
    04:00 +18°C° 0 mm 1 m/s 733 mmHg 81%
    05:00 +18°C° 0 mm 1 m/s 733 mmHg 82%
    06:00 +19°C° 0 mm 1 m/s 734 mmHg 83%
    07:00 +20°C° 0 mm 1 m/s 734 mmHg 80%
    08:00 +20°C° 0 mm 2 m/s 735 mmHg 78%
    09:00 +23°C° 0 mm 2 m/s 735 mmHg 76%
    10:00 +24°C° 0 mm 2 m/s 735 mmHg 72%
    11:00 +25°C° 0 mm 2 m/s 735 mmHg 69%
    12:00 +26°C° 0 mm 2 m/s 736 mmHg 66%
    13:00 +26°C° 0,1 mm 2 m/s 736 mmHg 65%
    14:00 +27°C° 0,1 mm 2 m/s 736 mmHg 65%
    15:00 +27°C° 0,1 mm 2 m/s 737 mmHg 65%
    16:00 +26°C° 0,2 mm 3 m/s 737 mmHg 71%
    17:00 +25°C° 0,2 mm 4 m/s 737 mmHg 77%
    18:00 +23°C° 0,2 mm 5 m/s 738 mmHg 83%
    19:00 +21°C° 0 mm 5 m/s 738 mmHg 82%
    20:00 +19°C° 0 mm 5 m/s 739 mmHg 82%
    21:00 +16°C° 0 mm 6 m/s 739 mmHg 82%
    22:00 +14°C° 0 mm 5 m/s 740 mmHg 77%
    23:00 +13°C° 0 mm 5 m/s 740 mmHg 72%

    25 Juin, Lundi

    Heure Température Précipitation Vent Pression Humidité
    00:00 +12°C° 0 mm 4 m/s 741 mmHg 67%
    01:00 +11°C° 0 mm 4 m/s 741 mmHg 68%
    02:00 +10°C° 0 mm 4 m/s 742 mmHg 68%
    03:00 +8°C° 0 mm 4 m/s 742 mmHg 69%
    04:00 +9°C° 0 mm 3 m/s 742 mmHg 72%
    05:00 +9°C° 0 mm 3 m/s 742 mmHg 75%
    06:00 +10°C° 0 mm 3 m/s 743 mmHg 78%
    07:00 +12°C° 0 mm 4 m/s 743 mmHg 76%
    08:00 +14°C° 0 mm 4 m/s 743 mmHg 74%
    09:00 +17°C° 0 mm 5 m/s 743 mmHg 72%
    10:00 +19°C° 0 mm 4 m/s 743 mmHg 70%
    11:00 +21°C° 0 mm 4 m/s 744 mmHg 68%
    12:00 +22°C° 0 mm 4 m/s 744 mmHg 65%
    13:00 +23°C° 0 mm 4 m/s 744 mmHg 65%
    14:00 +23°C° 0 mm 4 m/s 743 mmHg 65%
    15:00 +23°C° 0 mm 4 m/s 743 mmHg 65%
    16:00 +23°C° 0 mm 4 m/s 743 mmHg 70%
    17:00 +22°C° 0 mm 3 m/s 743 mmHg 74%
    18:00 +21°C° 0 mm 3 m/s 742 mmHg 78%
    19:00 +20°C° 0 mm 3 m/s 742 mmHg 80%
    20:00 +18°C° 0 mm 3 m/s 742 mmHg 81%
    21:00 +16°C° 0 mm 3 m/s 742 mmHg 83%
    22:00 +14°C° 0 mm 3 m/s 742 mmHg 84%
    23:00 +14°C° 0 mm 3 m/s 742 mmHg 86%
    Voir plus